Current weather by "City, St" or "zip code"  
 
Advertise Here

Current Conditions: Kearney, Kearney Municipal Airport, NE

Light Snow Fog/Mist


23.0 F

Last Updated on Jan 25 2021, 2:56 am CST
Humidity: 96%
Wind Speed: NE 8.1 mph
Barometer 29.83 in
Dewpoint: 21.9 F
Visibility: 5.00 mi
Precip: Trace
Heat Index: NA
Wind Chill: 14 F
Current conditions at:

Kearney, Kearney Municipal Airport, NE (KEAR)

Lat: 40.73333 Lon: 99

Local Radar Image active severe weather and emergency alerts image image weather storm and storm spotter reports image weather observation monitoring service image
Local
Radar
Active
Alerts
Storm Reports Obs
Monitoring

Sign-up For Email & Text Message Weather Alert Notification Services


Advertise Here

Observation History for Kearney, Kearney Municipal Airport, NE


Time Wind
(mph)
Vis
(mi)
Weather Precip (in) Temperature (F) Relative
Humidity
Wind
Chill
(F)
Heat
Index
(F)
Pressure
Air Dwpt altimeter
(in)
sea level
(mb)
Rmks
2:56 am CST NE 8.1 5.00 Light Snow Fog/Mist Trace 23.0 21.9 96% 14 NA 29.83 1012.5
1:56 am CST E 9.2 1.75 Light Snow Fog/Mist 00.01 23.0 21.9 96% 13 NA 29.84 1012.9
12:56 am CST E 11.5 1.00 Light Snow Fog/Mist Trace 23.0 23.0 100% 12 NA 29.86 1013.7
11:56 pm CST E 9.2 2.50 Fog/Mist -- 23.0 21.9 96% 13 NA 29.89 1014.7
10:56 pm CST E 6.9 5.00 Fog/Mist -- 23.0 21.9 96% 15 NA 29.94 1016.2
9:56 pm CST E 9.2 5.00 Fog/Mist -- 24.0 21.9 91% 14 NA 29.96 1016.9
8:56 pm CST E 12.7 10.00 Overcast -- 24.0 21.9 91% 12 NA 29.94 1016.3
7:56 pm CST E 10.4 10.00 Overcast -- 24.0 21.9 91% 14 NA 29.93 1016.0
6:56 pm CST E 10.4 10.00 Overcast -- 24.0 21.9 91% 14 NA 29.93 1016.0
5:56 pm CST E 12.7 10.00 Overcast -- 24.0 21.9 91% 12 NA 29.94 1016.4
4:56 pm CST E 9.2 10.00 Overcast -- 25.0 21.9 88% 16 NA 29.97 1017.2
3:56 pm CST E 10.4 10.00 Overcast -- 26.0 21.9 84% 16 NA 29.98 1017.5
2:56 pm CST E 6.9 10.00 Overcast -- 26.0 21.9 84% 18 NA 30.00 1018.2
1:56 pm CST NE 8.1 10.00 Overcast -- 27.0 23.0 85% 19 NA 30.01 1018.3
12:56 pm CST E 8.1 10.00 Overcast -- 27.0 23.0 85% 19 NA 30.03 1019.3
11:56 am CST NE 11.5 10.00 Overcast -- 27.0 23.0 85% 17 NA 30.06 1020.2
10:56 am CST NE 13.8 10.00 Overcast -- 26.0 21.9 84% 14 NA 30.07 1020.8
9:56 am CST N 11.5 10.00 Overcast -- 26.0 23.0 88% 15 NA 30.08 1020.9
8:56 am CST NE 13.8 10.00 Overcast -- 25.0 21.9 88% 13 NA 30.06 1020.4
7:56 am CST N 15.0 10.00 Overcast -- 25.0 21.9 88% 13 NA 30.06 1020.2
6:56 am CST NE 17.3 10.00 Overcast -- 25.0 23.0 92% 12 NA 30.04 1019.6
5:56 am CST N 17.3 10.00 Overcast -- 25.0 23.0 92% 12 NA 30.02 1019.1
4:56 am CST N 16.1 10.00 Overcast -- 26.0 24.1 92% 13 NA 30.00 1018.2
3:56 am CST N 13.8 G 20.7 10.00 Overcast Trace 26.0 24.1 92% 14 NA 29.99 1017.9

Regional Weather Observation


Lexington, Jim Kelly Field Airport, NE (KLXN)

Snow
24.0 F

Brewster Field Airport, NE (KHDE)

Light Snow
25.0 F

Broken Bow, Broken Bow Municipal Airport, NE (KBBW)

Fog/Mist
24.0 F

Grand Island, Central Nebraska Regional Airport, NE (KGRI)

Light Snow Fog/Mist
25.0 F

Hastings, Hastings Municipal Airport, NE (KHSI)

Light Snow Fog/Mist
25.0 F

Ord, Evelyn Sharp Field Airport, NE (KODX)

Fog/Mist
24.0 F